www.pogodaiklimat.ru
Время
(UTC), дата
18:53 12.10
19:53 12.10
20:53 12.10
21:53 12.10
22:53 12.10
23:53 12.10
00:53 12.10
01:53 12.10
02:53 12.10
03:53 12.10
04:53 12.10
05:53 13.10
06:53 13.10
07:53 13.10
08:53 13.10
09:53 13.10
10:53 13.10
11:53 13.10
12:53 13.10
13:53 13.10
14:53 13.10
15:53 13.10
16:53 13.10
17:53 13.10
18:53 13.10
19:53 13.10
20:53 13.10
21:53 13.10
22:53 13.10
23:53 13.10
00:53 13.10
01:53 13.10
02:53 13.10
03:53 13.10
04:49 13.10
04:53 13.10
05:43 14.10
05:53 14.10
06:53 14.10
07:53 14.10
08:53 14.10
09:41 14.10
09:53 14.10
10:32 14.10
10:53 14.10
11:14 14.10
11:34 14.10
11:53 14.10
Ветер
(напр.,м/с)
Видим. Явления Облачность Т
(С)
Тd
(С)
f
(%)
Тe
(С)
Тes
(С)
Комфортность P
(гПа)
Po
(гПа)
Тmin
(С)
Tmax
(С)
R
(мм)
R24
(мм)
S
(см)
С 6 16 км 5/2 1500 м
[верхняя]
+21.7 +5.6 35 +22 +25 комфорт 1019.3 1017.2
С 4 16 км 2/0 5400 м
[средняя верхняя]
+22.8 +6.7 35 +23 +29 комфорт 1018.5 1016.1
С 5 16 км 2/0 5400 м
[средняя верхняя]
+22.8 +6.1 34 +23 +26 комфорт 1018.5 1016.1
СВ 4 16 км 5/0 3000 м
[средняя верхняя]
+21.7 +6.7 38 +22 +24 комфорт 1018.3 1016.1
С 5 16 км 5/0 3000 м
[средняя верхняя]
+19.4 +6.7 44 +20 +20 1017.9 1015.8 +19.4 +22.8
С 4 16 км ясно +17.8 +7.2 50 +17 +17 1017.9 1015.8
С 4 16 км ясно +16.7 +7.2 53 +16 +16 1018.2 1016.1
СВ 4 16 км 5/0 7500 м
[верхняя]
+16.7 +7.2 53 +16 +16 1018.5 1016.1
СВ 3 16 км 5/0 6000 м
[средняя верхняя]
+16.1 +7.8 58 +16 +16 1018.9 1016.8
СВ 3 16 км 8/0 5400 м
[средняя верхняя]
+16.1 +8.3 60 +16 +16 1018.2 1016.1
С 2 16 км 8/0 5400 м
[средняя верхняя]
+15.6 +8.3 62 +15 +15 1018.2 1015.8 +15.6 +19.4
С 3 16 км 8/0 5400 м
[средняя верхняя]
+15.0 +8.9 67 +14 +14 1018.1 1015.8
С 3 16 км 8/0 2400 м
[средняя верхняя]
+15.6 +8.9 64 +15 +15 1017.5 1015.1
СВ 2 16 км 8/0 7500 м
[верхняя]
+16.1 +8.3 60 +16 +16 1016.9 1014.8
В 2 16 км 8/0 2400 м
[средняя верхняя]
+16.1 +8.9 62 +16 +16 1016.4 1014.1
0 16 км 8/0 4500 м
[средняя верхняя]
+15.0 +10.0 72 +15 +15 1017.2 1015.1
СВ 3 16 км 8/0 3000 м
[средняя верхняя]
+16.1 +9.4 64 +16 +16 1017.2 1014.8 +14.4 +16.1
СВ 3 16 км 8/0 3000 м
[средняя верхняя]
+16.1 +9.4 64 +16 +16 1017.3 1015.1
нст 1 16 км 2/0 3000 м
[средняя]
+18.3 +10.0 58 +19 +19 1017.9 1015.8
С 2 16 км 10/5 1410 м
[средняя]
+20.6 +11.1 54 +23 +23 комфорт 1018.3 1016.1
нст 1 16 км 8/8 840 м
[средняя верхняя]
+22.2 +10.6 48 +24 +25 комфорт 1018.7 1016.5
СВ 1 16 км 8/8 930 м
[средняя верхняя]
+24.4 +12.8 48 +26 +28 жарко 1018.2 1016.1
нст 3 16 км 8/5 960 м
[средняя верхняя]
+26.7 +13.9 45 +29 +32 жарко 1017.4 1015.1 +16.1 +26.7
нст 1 16 км 8/5 960 м
[средняя верхняя]
+26.7 +14.4 47 +29 +34 жарко 1016.4 1014.1
0 16 км 8/0 2400 м
[средняя верхняя]
+27.8 +16.1 49 +31 +44 душно 1015.2 1013.1
0 16 км 5/0 2400 м
[средняя верхняя]
+28.3 +16.7 49 +32 +44 душно 1014.8 1012.4
В 1 16 км 5/0 2700 м
[средняя верхняя]
+28.3 +16.7 49 +32 +38 душно 1014.7 1012.4
ЮВ 4 16 км 8/0 3000 м
[средняя верхняя]
+26.7 +17.2 56 +31 +32 душно 1014.7 1012.4
ЮВ 4 16 км 8/0 3000 м
[средняя верхняя]
+25.6 +17.8 62 +30 +30 душно 1015.0 1012.8 +25.0 +28.9
В 4 16 км 8/0 3300 м
[средняя верхняя]
+24.4 +17.2 64 +28 +28 душно 1015.3 1013.1
ЮВ 3 16 км 8/0 3300 м
[средняя верхняя]
+24.4 +17.8 67 +29 +29 душно 1015.8 1013.4
ЮВ 4 16 км 8/0 4500 м
[средняя верхняя]
+23.3 +18.9 76 +30 +30 очень
душно
1015.9 1013.8
В 4 16 км 8/2 1500 м
[средняя верхняя]
+23.9 +19.4 76 +29 +29 душно 1016.0 1013.8
В 3 16 км 8/2 1500 м
[средняя верхняя]
+23.9 +19.4 76 +29 +29 душно 1015.9 1013.8
В 2 16 км 8/8 840 м
[средняя верхняя]
+24.0 +20.0 78 +29 +29 душно 1013.8
В 3 16 км 8/8 840 м
[средняя верхняя]
+24.4 +20.0 76 +30 +30 очень
душно
1016.1 1013.8 +23.3 +25.6
В 4 16 км 10/8 840 м
[средняя верхняя]
+24.4 +20.0 76 +30 +30 очень
душно
1013.4
В 3 16 км 10/8 840 м
[средняя верхняя]
+24.4 +20.6 79 +30 +30 очень
душно
1015.8 1013.4
СВ 3 16 км 10/5 960 м
[средняя верхняя]
+23.9 +20.0 79 +29 +29 душно 1015.5 1013.4
В 3 16 км 8/5 1140 м
[средняя верхняя]
+23.3 +20.0 82 +30 +30 очень
душно
1014.8 1012.8
СВ 3 16 км 8/8 480 м +23.9 +20.0 79 +29 +29 душно 1014.8 1012.8
В 3 16 км 8/8 480 м
[средняя]
+23.9 +20.0 79 +29 +29 душно 1012.4
В 3 16 км 8/8 540 м
[средняя]
+23.9 +20.0 79 +29 +29 душно 1014.9 1012.8
В 3 16 км 8/8 720 м +23.9 +20.0 79 +29 +29 душно 1013.1
В 3 16 км 8/8 900 м
[средняя]
+23.9 +20.6 82 +30 +30 очень
душно
1015.4 1013.1 +23.3 +24.4
В 3 16 км 8/8 660 м +23.9 +20.6 82 +30 +30 очень
душно
1013.1
В 3 16 км 5/5 600 м
[верхняя]
+23.3 +20.6 85 +31 +31 очень
душно
1012.8
ЮВ 1 16 км 2/2 600 м
[средняя верхняя]
+23.3 +21.1 87 +31 +31 очень
душно
1014.9 1012.8
Местоположение метеостанции Houston Hobby Airport: широта 29.6375 долгота -95.2825 высота над уровнем моря 14 м.
В архиве по умолчанию представлена погода в Хьюстоне за последние 1-2 суток. Обновление информации о фактической погоде в базе происходит ежечасно! Архивные данные за месяц целиком и за предыдущие месяцы Вы можете получить, выбрав интересующий диапазон дат из раскрывающегося списка и нажав кнопку "Ввод!".
Внимание! Архив погоды МЕТАР в базе сайта по станциям, не включенным в климатический монитор, хранится не более 60 дней. Нет смысла пытаться выбрать более раннюю дату.
*Определитесь, кто Вы:
Внимание! Время в таблицах - всемирное. Для получения местного времени необходимо прибавить поправку, которая равна ч.
Смотрите также архив погоды в соседних городах и на ближайших метеорологических станциях:
Партнеры нашего сайта:      
Пояснения к столбцам:
  • Ветер - указаны скорость ветра в м/с - средняя за 10 мин, порывы в срок и между сроками (в фигурных скобках) и направление, откуда дует ветер: С - северный,
  • СВ - северо-восточный, В - восточный, ЮВ - юго-восточный, Ю - южный, ЮЗ - юго-западный, З - западный, СЗ - северо-западный.
  • Видимость - горизонтальная дальность видимости в метрах или километрах. При видимости от 1 до 10 км при отсутствии осадков обычно наблюдается дымка, при ухудшении видимости до 1 км и менее - туман. В сухую погоду видимость может ухудшаться дымом, пылью или мглою.
  • Явления - указаны атмосферные явления, наблюдавшиеся в срок или в последний час перед сроком; фигурными скобками обозначены явления, наблюдавшиеся между сроками (за 1-3 часа до срока); квадратными скобками обозначены град или гололедные отложения с указанием их диаметра в мм.
  • Облачность - указаны через наклонную черту общая и нижняя облачность в баллах и высота нижней границы облаков в метрах; квадратными скобками обозначены формы облаков: Ci - перистые, Cs - перисто-слоистые, Cc - перисто-кучевые, Ac - высококучевые, As - высокослоистые, Sc - слоисто-кучевые, Ns - слоисто-дождевые, Cu - кучевые, Cb - кучево-дождевые. Подробнее классификацию облаков см. в Атласе облаков (PDF).
  • T - Температура воздуха - температура, измеренная на высоте 2 м над землей.
  • Td - Температура точки росы - температура, при понижении до которой содержащийся в воздухе водяной пар достигнет насыщения.
  • f - Относительная влажность воздуха - влажноcть воздуха, измеренная на высоте 2 м над землей.
  • Te - Эффективная температура - температура, которую ощущает одетый по сезону человек в тени. Характеристика душности погоды. При расчете учитывается влияние влажности воздуха и скорости ветра на теплоощущения человека.
  • Tes - Эффективная температура на солнце - температура, которую ощущает человек, с поправкой на солнечный нагрев. Характеристика знойности погоды. Зависит от высоты солнца над горизонтом, облачности и скорости ветра. Ночью, в пасмурную погоду, а также при ветре 12 м/с и более поправка равна нулю.
  • P - Атмосферное давление - приведенное к уровню моря атмосферное давление.
  • Po - Атмосферное давление - измеренное на уровне метеостанции атмосферное давление.
  • Tmin - Минимальная температура - минимум температуры воздуха на высоте 2 м над землей.
  • Tmax - Максимальная температура - максимум температуры воздуха на высоте 2 м над землей.
  • R - Количество осадков - Количество выпавших осадков за период времени, мм. При наведении курсора мыши на число - период времени, за который выпало указанное количество осадков.
  • R24 - Количество осадков - Количество выпавших осадков за 24 часа, мм.
  • S - Снежный покров - Высота снежного покрова, см. При наведении курсора мыши на число - состояние снежного покрова и степень покрытия местности в баллах.